Location: *
(48.8489°N, 2.3218°E)
Time: 03:45:53
(UTC+00:00)

Cosmos 2151 Rocket - Pass Details

Date: 23 August 2019
Orbit: 616 x 643 km, 82.5° (Epoch: 19 September)

Event Time Altitude Azimuth Distance (km) Brightness Sun altitude
Exits shadow 22:24:18 54° 285° (WNW) 775 4.1 -26.7°
Drops below altitude 10° 22:28:41 10° 2° (N) 2,024 7.0 -27.0°
Sets 22:30:58 0° 7° (N) 2,931 7.9 -27.2°
